Regional Weather Roundup
Issued by NWS

Home | Current Version | Previous Version | Text Only | Print | Product List | Glossary Off
Versions: 1 2 3 4 5 6 7 8 9 10 11 12 13 14 15 16 17 18 19 20 21 22 23 24 25 26 27 28 29 30 31 32 33 34 35 36 37 38 39 40 41 42 43 44 45 46 47 48 49 50

000
ASUS43 KFSD 040410
RWRSD

WEATHER ROUNDUP FOR SOUTH DAKOTA
NATIONAL WEATHER SERVICE SIOUX FALLS SD
1100 PM CDT SUN MAY 03 2015

NOTE: "FAIR" INDICATES FEW OR NO CLOUDS BELOW 12,000 FEET WITH NO
SIGNIFICANT WEATHER AND/OR OBSTRUCTIONS TO VISIBILITY.


SDZ001>005-009-010-012>017-040500-
NORTHWEST AND NORTH CENTRAL SOUTH DAKOTA

CITY           SKY/WX    TMP DP  RH WIND       PRES   REMARKS
BUFFALO          N/A     52  34  50 E3        30.04R
FAITH            N/A     51  25  36 E3        30.08R
MOBRIDGE       CLEAR     50  23  34 NE9       30.04R
$$

SDZ012>016-024>037-041>051-057-063-072>074-040500-
SOUTHWEST AND SOUTH CENTRAL SOUTH DAKOTA

CITY           SKY/WX    TMP DP  RH WIND       PRES   REMARKS
RAPID CTY ARPT PTCLDY    51  34  52 NE10      30.08R
PIERRE         PTCLDY    52  24  33 N12       30.03S
CUSTER         CLOUDY    47  31  53 E9        30.12R
ELLSWORTH AFB  PTCLDY    53  35  51 E2        30.07R
PHILIP         CLEAR     51  29  42 N10       30.06R
PINE RIDGE     CLOUDY    48  37  65 E6        30.06R
SPEARFISH      FAIR      45  36  70 E9        30.10R
WINNER         FAIR      54  28  36 NE9       30.03R
$$

SDZ004>011-016>023-039-040-040500-
NORTHEAST SOUTH DAKOTA

CITY           SKY/WX    TMP DP  RH WIND       PRES   REMARKS
ABERDEEN       CLEAR     50  25  37 N9        30.03R
WATERTOWN      CLEAR     48  30  49 NE3       30.01R
BROOKINGS      CLEAR     54  30  40 NE5       30.01R
SISSETON         N/A     48  24  39 N10       29.99R
$$

SDZ017-020-022-023-036>040-048>070-040500-
SOUTHEAST SOUTH DAKOTA

CITY           SKY/WX    TMP DP  RH WIND       PRES   REMARKS
SIOUX FALLS    FAIR      57  34  41 N9        29.98R
HURON          CLEAR     50  28  42 N8        30.01R
CHAMBERLAIN    PTCLDY    56  27  32 N7        30.02S
MITCHELL       CLEAR     56  34  43 N10       30.01R
YANKTON        CLEAR     63  37  39 N10       29.97R
$$

ABBREVIATIONS USED IN REMARKS
   TC - TEMPERATURE IN CELSIUS
  WCI - WIND CHILL INDEX
   HX - HEAT INDEX
  VSB - VISIBILITY




USA.gov is the U.S. government's official web portal to all federal, state and local government web resources and services.